Погода в Шри Ганганагаре

Индия     29°54′51″N   73°52′47″E
темп.,
°C
ветер,
м/с
пор.,
м/с
влажн.,
%
обл.,
%
осадки,
мм/ч
давл.,
гПа
погр.,
м
15 апреля, чт
чт1523:30+30ю331284 0.0 100725
02:30+27зюз361593 0.0 100696
05:30+25юз111866 0.0 100612
08:30+29св4523100 0.0 1009366
11:30+35с1116100 0.0 10091131
14:30+38зюз571099 0.0 10054017
17:30+37юз66927 0.0 10043854
20:30+30юз221282 0.0 100511
16 апреля, пт
пт1623:30+28зюз331644 0.0 100518
02:30+26всв221618 0.0 100413
05:30+22ссв4839100 0.0 1005141
08:30+27с3329100 0.0 1007368
11:30+33ссз2119100 0.0 10071103
14:30+35зсз6516100 0.0 10052619
17:30+33ссз551786 0.0 10031766
20:30+26сз49330 0.1 1006182
17 апреля, сб
сб1723:30+24с254063 0.4 1008145
02:30+23ссз33481 0.1 100737
05:30+22ссз23489 0.1 100733
08:30+26ссз2238100 0.0 1009315
11:30+32зсз34230 0.0 10091692
14:30+36зсз46160 0.0 10073655
17:30+35зсз68144 0.0 10054122
20:30+29сз222068 0.0 100814
18 апреля, вс
вс1823:30+26всв46250 0.0 100998
02:30+24вюв510440 0.0 1008167
05:30+22ююв410460 0.0 1008197
08:30+28ююв23280 0.0 1010543
11:30+37юз47114 0.0 10082570
14:30+39з81160 0.0 10054150
17:30+37зсз71270 0.0 10044334
20:30+30сз46145 0.0 100578
19 апреля, пн
пн1923:30+22ссв4105319 0.0 1007263
02:30+20св38609 0.0 1005158
05:30+20ссв235925 0.0 100629
08:30+26ссв343532 0.0 1008316
11:30+35ссв331546 0.0 10061819
14:30+38ссз3495 0.0 10033461
17:30+37сз4484 0.0 10023539
20:30+29с48122 0.0 1004100